STARLINK-34649 (64798 NORAD) Tracking and Keplerian Element Data

This shows tracking and keplerian element data for the satellite.

Feedback or suggestion? Click here.




ElementValue
Catalog64798
NameSTARLINK-34649
Epoch Orbit590
Epoch Day354.25003472
Epoch Year2025
RAAN334.9075
Inclination70.0003
Eccentricity0.0003035
Argument of Perigee272.9383
Mean Anonmoly83.6493
Mean Motion14.99132602
Decay Rate0.00011992
L11 64798U 25150J 25354.25003472 .00011992 00000+0 99037-3 0 9991
L22 64798 70.0003 334.9075 0003035 272.9383 83.6493 14.99132602 5906



Live tracking and technical data element details for STARLINK-34649 (NORAD 64798). STARLINK-34649 can be tracked NOW for your location showing map with azimuth and elevation plus other details from your city location.







IsCatalogInMostPopularTable: catalog: 64798, numindb: 10
Update: records affected: 1



GetName: 64798 STARLINK-34649

Hit Count: updated at: Tue, 21 Apr 2026 19:09:23 GMT